Temperature
19 19 18 18 18 19 18 18 18 18 19 19 19 19 19 19 19 19 19 19 19 18 18 18 18 18 18 18 17 17 17 17 17 17 17 17 17 17 17 17 17 17 17
19 19 18 18 18 18 18 18 18 18 18 18 19 19 18 18 18 18 18 18 18 18 18 18 18 18 18 18 18 17 17 17 17 17 17 17 17 17 17 17 17 17 16
19 19 18 18 18 18 18 18 19 19 18 18 18 18 18 18 18 18 18 18 18 18 18 18 18 18 18 18 18 17 17 17 17 17 17 17 17 17 17 16 16 16 16
19 18 18 18 18 18 18 18 18 18 18 18 18 18 18 18 18 18 18 18 18 18 18 18 18 18 18 18 18 17 17 17 17 17 17 17 17 17 17 16 16 16 16
19 19 18 18 18 18 18 18 18 18 18 18 18 18 18 18 18 18 18 18 18 18 18 18 18 18 18 18 18 17 17 17 17 17 17 17 17 17 16 16 16 16 16
19 18 18 18 18 18 18 18 18 18 18 18 18 18 18 18 18 18 18 18 18 18 18 18 18 18 17 17 18 17 17 17 17 17 17 17 17 16 16 16 16 16 16
19 18 18 18 18 18 18 18 18 18 18 18 18 18 18 18 18 18 18 18 18 18 18 18 18 18 17 17 17 17 17 17 17 17 17 17 17 16 16 16 16 16 16
18 18 18 18 18 18 18 18 18 18 18 18 18 18 18 18 18 18 18 18 18 18 18 18 18 17 17 17 18 17 17 17 17 17 17 17 17 17 16 16 16 16 16
18 18 18 18 18 18 18 18 18 18 18 18 18 18 18 18 18 18 18 18 18 18 18 18 17 17 17 17 17 17 17 17 17 17 17 17 16 16 16 16 16 16 16
18 18 18 18 18 18 18 18 18 18 18 18 18 19 19 19 18 18 18 18 18 18 18 18 17 17 17 17 17 17 17 17 17 17 16 16 16 16 16 16 16 16 16
18 18 18 18 18 18 18 18 18 18 18 18 18 18 18 18 19 18 18 18 18 18 18 18 18 17 17 17 17 17 17 17 17 17 16 16 16 16 16 16 16 16 15
18 18 18 18 18 18 18 18 17 18 18 18 18 18 18 18 18 18 18 18 18 18 18 18 17 17 17 17 17 17 17 17 17 17 16 16 16 16 16 16 15 15 15
17 17 17 17 17 17 17 17 17 17 17 18 18 18 18 18 18 18 18 18 18 18 18 18 17 17 17 17 17 16 16 16 16 16 16 16 16 16 16 15 15 15 15
17 17 17 17 17 17 17 17 17 17 17 17 17 17 18 18 18 18 18 18 18 17 17 17 17 17 17 17 17 16 16 16 16 16 16 16 16 15 15 15 15 15 15
17 17 17 17 17 17 17 17 17 17 17 17 17 17 17 17 17 18 18 18 17 17 17 17 17 17 17 16 16 16 16 16 16 16 16 16 15 15 15 15 15 15 15
17 17 17 17 17 17 16 16 16 16 16 16 17 17 17 17 17 17 17 17 17 17 17 17 17 16 16 16 16 16 16 16 16 16 16 16 15 15 15 15 15 15 15
17 17 17 17 16 16 16 16 16 16 16 16 16 16 16 16 17 17 17 17 17 17 17 16 16 16 16 16 16 16 16 15 15 15 15 15 15 15 15 15 15 14 14
16 16 16 16 16 16 16 16 16 16 16 16 16 16 16 16 16 16 16 16 16 16 16 16 16 16 16 16 16 16 15 15 15 15 15 15 15 15 15 14 14 14 14
16 16 16 16 16 16 16 16 16 16 16 16 16 15 16 15 15 15 15 16 16 16 16 15 15 15 16 15 15 15 15 15 15 15 15 15 15 15 14 14 14 14 14
16 16 16 16 16 16 16 16 15 15 15 15 15 15 15 15 15 15 15 15 15 15 15 15 15 15 15 15 15 15 15 15 15 15 15 15 15 14 14 14 14 14 14
16 16 16 15 15 15 15 15 15 15 15 15 15 15 14 14 14 15 15 15 15 15 15 14 14 14 15 15 15 15 15 14 14 14 14 14 14 14 14 14 14 14 14
15 15 15 15 15 15 15 15 15 15 15 15 14 14 14 14 14 14 14 14 14 14 14 14 14 14 14 14 14 14 14 14 14 14 14 14 14 14 14 14 14 14 14
15 15 15 15 15 15 15 15 15 15 14 14 14 14 14 14 14 14 14 14 14 14 13 13 13 14 14 14 14 14 14 14 14 14 14 14 14 14 14 14 14 14 13
15 15 15 15 15 15 15 15 14 14 14 14 14 14 14 13 13 13 13 13 13 13 13 13 13 13 13 13 13 13 13 13 13 14 14 14 14 14 14 14 14 14 13
15 15 15 14 14 14 14 14 14 14 14 14 14 13 13 13 13 13 13 13 13 13 13 13 13 13 13 13 13 13 13 13 13 13 13 13 13 13 13 13 13 13 13
15 14 14 14 14 14 14 14 14 14 13 13 13 13 13 13 13 12 12 12 12 12 12 12 12 12 12 12 12 13 13 12 12 13 13 13 13 13 13 13 13 13 13
Wind_Speed
4 4 3 2 1 2 2 2 1 1 2 3 3 4 5 6 6 7 7 12 12 12 12 11 10 10 9 9 8 8 8 8 7 7 7 7 7 7 8 9 9 9 10
4 3 3 2 2 2 2 2 1 2 3 3 4 4 4 4 5 7 8 9 11 12 11 10 9 9 9 9 8 8 8 8 8 8 8 7 7 7 8 8 9 9 10
4 3 2 3 3 2 3 2 3 3 3 4 4 4 4 4 4 5 7 8 8 10 10 10 9 9 9 9 9 9 9 8 8 8 7 7 7 7 8 8 8 8 10
4 3 3 3 3 3 3 3 3 4 4 3 4 3 3 3 4 4 5 7 7 7 9 10 9 9 9 9 9 9 9 8 8 8 8 8 8 7 7 7 8 8 9
4 3 3 3 3 3 4 4 5 4 4 3 3 3 3 2 2 3 3 5 7 8 8 9 10 9 9 9 8 8 7 8 7 8 8 8 7 7 7 7 7 8 8
5 3 3 3 3 4 4 4 4 3 2 2 3 3 2 2 2 2 2 2 5 7 8 8 8 8 9 8 7 7 7 7 7 7 7 7 7 7 6 6 7 7 8
5 4 4 4 3 3 3 2 2 2 2 2 2 2 2 2 2 2 1 1 2 5 7 8 7 7 7 8 7 7 7 7 7 7 7 6 6 6 7 7 7 7 8
4 4 4 3 3 3 3 2 2 2 2 2 1 1 1 1 1 2 2 2 2 3 4 6 7 6 6 6 7 7 7 7 7 7 7 7 7 7 6 6 7 7 7
4 4 4 3 3 2 2 2 2 2 1 1 1 0 1 1 1 1 1 1 2 2 3 4 6 6 6 6 6 7 7 6 7 7 7 7 7 7 6 6 6 6 6
4 4 3 3 3 3 3 2 3 2 1 1 1 0 0 1 1 0 1 1 1 1 1 2 4 5 6 7 7 7 7 6 6 6 7 7 7 6 6 6 6 6 6
4 3 3 3 3 2 3 3 3 3 2 2 2 1 1 1 1 1 1 1 0 0 1 2 3 4 5 6 6 7 7 7 6 6 6 7 7 7 7 6 6 6 6
3 3 3 3 3 3 2 3 2 3 3 3 3 2 1 1 1 0 1 1 1 0 1 2 2 3 5 5 5 7 8 7 5 6 5 6 6 6 5 5 6 6 6
2 3 3 2 2 2 2 2 2 2 2 3 3 3 3 2 1 1 0 1 1 1 0 1 1 2 4 6 6 7 8 8 7 6 6 6 5 5 5 4 4 5 5
2 3 2 2 2 2 2 2 2 1 1 2 3 3 3 3 2 1 0 1 0 1 0 0 1 2 3 5 6 8 6 8 8 7 7 6 5 5 5 5 4 4 5
2 3 2 2 1 1 2 2 2 2 2 2 3 3 3 3 2 2 2 1 1 1 1 1 1 1 2 5 6 6 5 7 8 8 8 7 6 6 6 5 4 4 4
3 2 2 1 1 1 1 1 2 2 2 2 2 2 3 3 3 2 2 2 1 1 1 0 0 1 1 1 5 5 5 6 9 9 9 8 7 7 6 6 5 5 4
2 2 1 1 1 1 1 1 2 1 2 3 3 2 2 3 3 3 3 3 2 1 1 1 0 0 1 0 2 4 5 5 7 9 10 10 9 8 8 7 6 6 5
1 1 1 1 1 1 1 2 3 2 2 2 3 3 3 3 3 3 3 3 2 2 1 1 1 1 2 2 2 2 3 4 5 8 11 10 10 9 9 8 8 7 6
1 0 1 1 2 2 2 2 2 2 2 2 2 2 2 3 3 3 3 3 2 2 1 1 2 1 1 1 1 2 2 2 4 6 10 11 11 10 10 9 9 8 8
1 0 1 1 1 2 2 2 2 2 1 2 2 2 2 2 2 3 2 3 3 2 2 1 2 2 1 1 1 2 2 2 2 3 5 8 10 11 10 10 10 10 9
1 1 0 1 1 1 2 2 2 2 2 2 2 1 1 1 1 2 2 2 3 3 2 2 2 2 2 1 2 2 2 2 2 2 3 4 5 6 8 10 11 11 11
0 0 0 1 1 2 5 5 3 2 2 1 2 2 1 1 1 1 1 2 2 3 3 3 2 2 2 3 2 3 2 1 1 1 1 3 4 5 6 7 11 14 13
1 0 1 2 2 3 5 6 5 3 2 1 1 2 2 2 3 2 2 3 3 2 3 3 3 3 4 3 3 3 3 2 3 3 2 3 3 4 4 7 11 14 14
0 1 1 1 2 2 4 5 6 3 2 2 2 1 1 1 2 2 3 2 3 3 3 3 3 4 4 3 3 4 4 3 3 3 2 3 2 2 3 5 11 13 14
0 1 1 1 2 1 4 5 6 3 2 2 1 1 1 0 1 2 2 2 3 4 4 3 4 4 5 6 4 3 3 3 3 3 2 2 2 2 2 3 7 12 13
1 1 1 1 2 1 2 4 5 3 2 2 1 1 2 2 2 1 2 3 4 4 5 5 4 5 6 6 7 5 4 4 4 2 2 2 2 2 2 2 3 6 8
Wind_Direction
68 63 67 61 49 82 79 46 66 76 81 81 92 92 95 108 122 124 128 142 148 151 154 157 164 169 170 170 175 174 175 177 177 175 180 182 182 181 188 187 183 186 188
75 72 70 53 32 48 51 45 64 103 108 93 85 75 81 94 118 128 135 142 148 151 154 158 166 170 172 175 177 175 177 181 181 183 185 183 182 184 184 180 182 188 193
73 72 65 54 41 51 65 58 59 80 99 97 100 90 86 92 106 129 140 145 147 151 156 158 165 169 171 174 177 178 179 181 182 180 178 177 177 180 183 182 183 188 192
73 60 67 61 44 45 45 51 49 64 77 89 93 96 98 104 123 133 141 144 147 151 156 162 161 161 166 171 174 177 180 183 180 173 168 168 171 174 176 181 184 186 187
67 54 56 60 56 48 39 48 57 52 63 74 92 100 101 112 123 127 128 144 144 144 152 161 161 163 164 167 171 175 180 176 171 170 171 174 178 179 179 183 186 190 190
58 49 62 46 51 59 48 40 41 43 49 60 70 77 87 108 105 107 129 129 136 145 149 151 157 163 164 165 169 170 168 162 162 166 174 177 180 182 185 189 194 197 198
59 47 53 47 46 60 66 58 45 46 41 63 78 81 92 110 116 121 121 118 135 137 139 145 151 149 155 164 166 168 170 171 169 173 174 175 176 178 187 190 191 196 200
64 61 54 49 49 51 45 45 43 26 29 52 70 94 76 62 57 114 131 146 133 130 137 142 137 138 143 148 160 168 171 180 180 181 183 182 179 180 180 178 185 191 195
68 59 50 47 41 46 42 38 22 24 10 5 48 60 108 121 57 47 59 86 83 124 146 142 137 142 145 136 142 164 174 180 183 186 190 189 184 180 178 181 181 183 190
82 76 67 50 37 41 41 9 36 355 337 314 296 318 93 117 140 144 350 72 107 142 155 151 135 126 135 132 137 148 160 170 179 184 186 187 186 183 184 189 193 194 193
85 70 64 51 52 47 31 25 16 2 349 345 343 354 358 276 236 176 197 196 182 166 178 133 124 122 126 134 138 147 160 167 175 180 180 186 191 192 194 199 199 199 200
93 79 75 46 40 35 25 16 5 359 358 354 350 345 335 321 298 213 215 192 173 215 134 109 134 146 139 133 136 142 153 157 168 171 170 176 183 183 187 197 202 206 205
91 79 69 55 45 30 19 14 358 349 358 350 341 337 340 323 305 296 147 202 228 223 141 142 155 142 138 132 136 145 153 158 167 173 174 175 179 181 182 190 196 201 201
86 94 84 68 49 13 15 5 342 341 5 334 331 341 326 324 331 336 237 189 246 256 173 173 143 132 107 134 144 153 153 166 169 171 172 174 174 180 182 183 188 193 197
90 92 83 65 47 22 21 3 349 357 348 328 328 336 325 322 339 337 330 316 230 253 254 222 112 124 130 134 147 155 148 172 176 176 178 180 180 180 177 177 179 185 189
55 79 76 53 26 8 5 347 340 344 347 340 330 13 354 330 345 345 340 327 308 281 287 254 211 110 100 132 143 152 160 173 183 181 183 188 188 188 184 183 183 182 182
51 53 41 29 28 3 5 350 327 355 349 338 341 10 356 354 356 349 351 351 351 354 282 290 219 145 147 217 147 157 176 175 175 188 188 188 190 191 188 185 186 187 186
91 56 17 0 339 19 22 358 334 359 351 350 354 1 357 353 356 348 352 357 352 332 287 280 281 228 194 205 187 208 191 183 169 186 187 190 191 193 193 192 191 188 186
123 83 37 3 344 1 14 1 344 341 352 358 348 352 360 359 350 352 351 345 334 330 322 272 278 262 211 212 219 239 229 198 195 183 183 190 193 195 197 197 196 193 190
137 67 16 344 348 8 360 352 346 332 357 356 349 359 1 12 348 334 333 339 336 340 333 313 298 298 275 246 224 245 242 235 229 201 176 184 192 198 200 200 200 200 200
159 126 14 336 337 0 353 357 338 336 347 342 340 337 349 34 31 356 350 349 343 336 319 303 293 299 308 316 277 259 249 239 227 211 176 188 185 192 199 205 203 202 201
156 149 312 32 10 13 13 9 0 335 319 319 324 321 321 34 24 20 6 328 311 308 322 320 306 299 295 296 304 293 292 285 270 239 221 225 193 204 194 193 198 198 199
190 156 88 82 64 27 12 4 353 324 307 312 316 309 308 341 33 4 335 338 337 306 273 284 293 290 293 304 304 298 305 300 277 257 238 244 211 208 191 197 193 193 196
153 148 127 104 89 23 9 353 336 306 292 284 284 291 308 0 356 344 317 324 315 313 284 270 273 283 296 308 298 281 277 275 260 259 239 250 231 225 208 183 189 191 194
119 137 115 95 95 28 6 357 342 290 294 304 290 332 349 54 8 343 312 300 295 291 291 289 273 267 271 281 292 304 291 281 274 265 257 250 246 240 220 191 186 189 193
154 153 111 89 91 64 11 359 347 314 317 310 302 85 52 43 21 352 297 290 286 292 300 295 280 266 258 259 258 248 263 270 272 260 251 256 258 245 253 198 165 180 194
Height
1496 1496 1496 1496 1495 1495 1494 1493 1493 1493 1494 1496 1498 1500 1502 1504 1506 1508 1510 1512 1514 1516 1518 1519 1521 1522 1524 1525 1526 1527 1529 1530 1531 1532 1533 1534 1535 1536 1537 1538 1539 1541 1542
1498 1498 1498 1498 1497 1497 1496 1494 1494 1494 1496 1498 1500 1502 1503 1506 1507 1509 1511 1512 1514 1516 1517 1519 1520 1521 1523 1524 1525 1526 1527 1529 1530 1530 1531 1532 1533 1534 1535 1536 1538 1539 1541
1500 1500 1500 1500 1500 1499 1498 1496 1495 1496 1498 1500 1502 1503 1505 1507 1508 1509 1511 1513 1514 1516 1517 1519 1520 1521 1522 1523 1524 1525 1526 1527 1528 1529 1530 1531 1532 1533 1534 1535 1536 1537 1539
1503 1502 1502 1502 1502 1501 1501 1499 1498 1499 1500 1502 1504 1505 1507 1508 1510 1511 1513 1514 1515 1516 1517 1519 1520 1521 1521 1522 1523 1524 1525 1526 1527 1528 1529 1530 1530 1531 1532 1533 1535 1536 1537
1505 1504 1504 1504 1504 1504 1503 1503 1502 1502 1503 1505 1506 1507 1509 1510 1511 1513 1514 1515 1516 1517 1517 1519 1520 1520 1521 1522 1522 1523 1524 1525 1526 1526 1527 1528 1529 1530 1531 1532 1533 1534 1535
1506 1506 1506 1506 1506 1506 1505 1505 1505 1506 1507 1507 1508 1509 1510 1512 1513 1514 1515 1516 1517 1518 1518 1519 1519 1520 1521 1521 1522 1522 1523 1524 1524 1525 1526 1527 1527 1528 1529 1530 1530 1531 1533
1507 1507 1507 1507 1507 1507 1507 1508 1507 1508 1509 1510 1510 1511 1512 1513 1514 1515 1516 1516 1517 1518 1519 1519 1519 1520 1520 1520 1521 1521 1521 1522 1523 1523 1524 1525 1526 1526 1527 1528 1528 1529 1530
1509 1509 1509 1509 1509 1509 1508 1509 1509 1509 1510 1511 1512 1512 1513 1515 1515 1516 1516 1517 1518 1518 1519 1519 1519 1519 1520 1520 1520 1520 1520 1520 1521 1522 1522 1523 1524 1525 1525 1526 1526 1527 1528
1510 1510 1510 1510 1510 1510 1510 1510 1510 1510 1511 1512 1513 1514 1514 1514 1515 1516 1516 1517 1517 1518 1518 1518 1519 1519 1519 1519 1519 1519 1519 1519 1519 1520 1521 1521 1522 1523 1523 1524 1525 1525 1526
1511 1511 1511 1511 1511 1511 1511 1511 1511 1511 1512 1512 1513 1514 1514 1515 1515 1516 1517 1516 1517 1517 1518 1518 1518 1518 1518 1518 1518 1518 1518 1518 1518 1518 1519 1519 1520 1521 1521 1522 1523 1523 1524
1511 1511 1511 1511 1511 1511 1511 1511 1511 1511 1512 1512 1513 1513 1514 1514 1515 1515 1515 1516 1516 1516 1517 1517 1517 1517 1517 1517 1516 1516 1516 1516 1516 1516 1516 1517 1518 1518 1519 1520 1520 1521 1521
1512 1511 1511 1511 1511 1511 1511 1511 1511 1511 1512 1512 1512 1513 1513 1514 1514 1514 1514 1515 1515 1515 1516 1516 1516 1516 1516 1515 1515 1515 1515 1515 1514 1513 1514 1515 1516 1516 1517 1517 1518 1518 1519
1512 1512 1512 1511 1511 1511 1511 1511 1511 1511 1511 1511 1512 1512 1513 1513 1513 1513 1513 1513 1514 1514 1515 1515 1515 1515 1514 1514 1514 1514 1513 1513 1513 1513 1513 1514 1514 1514 1515 1515 1515 1516 1516
1512 1512 1512 1512 1511 1511 1511 1510 1510 1510 1510 1511 1511 1511 1511 1512 1512 1512 1513 1513 1513 1513 1514 1514 1514 1514 1513 1513 1512 1512 1512 1512 1512 1512 1512 1512 1512 1513 1513 1513 1513 1513 1514
1512 1511 1511 1511 1511 1510 1510 1510 1510 1509 1509 1510 1510 1510 1510 1511 1511 1511 1511 1512 1512 1512 1512 1512 1512 1512 1512 1511 1511 1511 1511 1511 1511 1511 1511 1511 1511 1511 1511 1511 1512 1512 1512
1511 1511 1511 1510 1510 1510 1509 1509 1508 1508 1509 1509 1509 1509 1509 1509 1509 1509 1509 1510 1510 1510 1510 1510 1510 1510 1510 1510 1510 1509 1509 1509 1509 1509 1509 1509 1509 1509 1509 1510 1510 1511 1511
1510 1510 1510 1510 1509 1509 1508 1508 1508 1507 1507 1507 1507 1507 1507 1507 1507 1507 1507 1508 1508 1508 1508 1509 1509 1509 1509 1509 1508 1508 1508 1507 1507 1508 1508 1508 1508 1508 1508 1508 1509 1509 1510
1509 1509 1509 1509 1509 1508 1507 1507 1507 1506 1506 1505 1505 1505 1505 1505 1505 1505 1505 1505 1506 1506 1506 1506 1507 1507 1507 1507 1507 1506 1506 1506 1506 1506 1506 1506 1506 1506 1506 1506 1507 1507 1507
1509 1509 1508 1508 1508 1507 1507 1506 1506 1505 1505 1504 1504 1503 1503 1503 1503 1503 1504 1504 1504 1504 1504 1504 1504 1505 1505 1505 1505 1505 1505 1504 1504 1504 1504 1504 1504 1504 1504 1505 1505 1505 1505
1508 1508 1508 1507 1506 1506 1505 1505 1504 1504 1504 1503 1503 1502 1502 1502 1502 1502 1502 1502 1502 1502 1502 1502 1502 1503 1503 1503 1502 1502 1502 1502 1503 1503 1502 1502 1503 1503 1502 1503 1503 1503 1503
1507 1506 1506 1506 1505 1504 1504 1503 1503 1503 1502 1501 1501 1500 1500 1500 1500 1500 1500 1500 1500 1500 1500 1500 1500 1500 1500 1500 1500 1500 1500 1500 1500 1501 1500 1500 1500 1500 1500 1500 1500 1500 1501
1505 1505 1505 1504 1504 1503 1502 1502 1501 1500 1500 1499 1499 1498 1498 1498 1498 1497 1497 1498 1498 1498 1498 1498 1497 1498 1497 1498 1498 1498 1497 1498 1498 1498 1498 1497 1497 1497 1497 1497 1497 1497 1498
1503 1503 1503 1502 1502 1501 1501 1500 1499 1499 1498 1497 1496 1496 1496 1496 1495 1495 1495 1495 1495 1495 1496 1496 1495 1495 1495 1495 1495 1495 1495 1495 1495 1495 1495 1494 1495 1494 1494 1494 1494 1495 1495
1501 1501 1501 1500 1500 1499 1499 1498 1497 1497 1496 1495 1495 1494 1493 1493 1492 1492 1492 1492 1492 1492 1492 1492 1492 1492 1492 1492 1492 1492 1492 1492 1492 1492 1493 1492 1491 1491 1491 1491 1492 1492 1492
1499 1499 1499 1498 1498 1497 1497 1496 1495 1494 1494 1493 1492 1491 1491 1490 1489 1489 1489 1488 1488 1488 1489 1489 1489 1489 1489 1489 1489 1489 1489 1489 1488 1489 1489 1489 1488 1488 1488 1488 1489 1489 1489
1497 1497 1497 1496 1496 1495 1494 1494 1493 1492 1491 1491 1490 1489 1488 1487 1486 1486 1486 1485 1485 1485 1485 1485 1485 1485 1486 1486 1486 1486 1486 1486 1485 1485 1485 1486 1485 1485 1485 1485 1485 1486 1486